Regional Weather Roundup
Issued by NWS Burlington, VT

Home | Current Version | Previous Version | Text Only | Print | Product List | Glossary On
Versions: 1 2 3 4 5 6 7 8 9 10 11 12 13 14 15 16 17 18 19 20 21 22 23 24 25 26 27 28 29 30 31 32 33 34 35 36 37 38 39 40 41 42 43 44 45 46 47 48 49 50
000
ASUS41 KBTV 122030
RWRBTV
VERMONT REGIONAL WEATHER ROUNDUP
NATIONAL WEATHER SERVICE BURLINGTON VT
300 PM EST FRI FEB 12 2016

NOTE: "FAIR" INDICATES FEW OR NO CLOUDS BELOW 12,000 FEET WITH NO
SIGNIFICANT WEATHER AND/OR OBSTRUCTIONS TO VISIBILITY.

* THESE REPORTS ARE NOT UNDER NWS QUALITY CONTROL AND/OR DO NOT
  REPORT WEATHER SUCH AS PRECIPITATION AND FOG.

VTZ001>019-122100-
_____VERMONT_____


CITY           SKY/WX    TMP DP  RH WIND       PRES   REMARKS
BURLINGTON     FAIR      21   4  47 S16G22    29.90F WCI   7
MONTPELIER     PTSUNNY   18   1  47 CALM      29.91F
MORRISVILLE    FAIR      22   3  44 S10G18    29.89F WCI  11
ST. JOHNSBURY*   N/A     18   0  45 MISG      29.90F
LYNDONVILLE*   PTSUNNY   16   1  51 SE13      29.89S WCI   2
RUTLAND*       FAIR      19   0  42 S9        29.93S WCI   9
SPRINGFIELD    FAIR      21  -1  38 VRB5      29.96F WCI  15
HIGHGATE*      FAIR      21   4  48 S7G16     29.89F WCI  13
NEWPORT*       PTSUNNY   17   0  47 S7        29.87F WCI   7
BENNINGTON     FAIR      21  -1  38 SW9       29.94F WCI  11
SUTTON*          N/A     12 N/A N/A MISG        N/A
GALLUP MILLS*    N/A     14 N/A N/A MISG        N/A
UNION VILLAGE*   N/A     21 N/A N/A MISG        N/A
MT. MANSFIELD*   N/A     10 N/A N/A NW23        N/A  WCI -10

_____LAKE CHAMPLAIN_____


CITY           SKY/WX    TMP DP  RH WIND       PRES   REMARKS
COLCHESTER RF*   N/A     23  12  63 S26         N/A  WCI   6
DIAMOND ISL*     N/A     23  10  58 SE17        N/A  WCI   9

$$

NYZ007-026>031-035-052-083-122100-
_____NORTHERN NEW YORK_____


CITY           SKY/WX    TMP DP  RH WIND       PRES   REMARKS
PLATTSBURGH    CLOUDY    20   8  60 SE18      29.89F WCI   5
SARANAC LAKE   PTSUNNY   18   3  52 SW15G22   29.74F WCI   4
MASSENA        SNOW      21  15  78 S20G25    29.83F VSB 1/2 WCI   6
OGDENSBURG*    SNOW      21  19  93 SW12G17   29.81F VSB 1/4 WCI   9
STARK FALLS*     N/A     19 N/A N/A S12         N/A  WCI   7
WATERTOWN      SNOW      23  16  74 SW15G32   29.83F VSB 1/2 WCI  10
ALBANY         CLOUDY    24   2  38 S12       29.99F WCI  13
GLENS FALLS    CLOUDY    22   3  44 S15       29.96F WCI   9

$$
NHZ002-005-011-122100-
_____NEW HAMPSHIRE_____


CITY           SKY/WX    TMP DP  RH WIND       PRES   REMARKS
LEBANON        MOSUNNY   22   1  40 S13       29.93F WCI  10
MT WASHINGTON  FOG       -9  -9 100 SW31        N/A  VSB 1/8 WCI -39
PLYMOUTH       FAIR      21   2  44 SW5       29.95F WCI  15
WHITEFIELD     MOSUNNY   18   0  45 S9        29.89F WCI   7

$$

_____REGIONAL QUEBEC LOCATIONS_____


CITY           SKY/WX    TMP DP  RH WIND       PRES   REMARKS
MONTREAL       LGT SNOW  19   7  58 SE12      29.85F WCI   7
QUEBEC CITY    CLOUDY     7  -6  56 SW6       29.96F WCI  -3
SHERBROOKE     SUNNY     14   0  52 SW9       29.88F WCI   2

_____REGIONAL ONTARIO LOCATIONS_____


CITY           SKY/WX    TMP DP  RH WIND       PRES   REMARKS
OTTAWA         PTSUNNY   23  14  68 S12       29.75F WCI  12

______KEY______
VSB  - VISIBILITY IN MILES
WCI  - WIND CHILL INDEX
HX   - HEAT INDEX
$$
NNNN



USA.gov is the U.S. government's official web portal to all federal, state and local government web resources and services.